Location: Livorno
(43.5500°N, 10.3170°E)
Time: 19:24:35
(UTC+02:00)

ISS - Visible Passes

Search period start: 29 July 2021 00:00
Search period end: 08 August 2021 00:00
Orbit: 419 x 421 km, 51.6° (Epoch: 29 July)

Date Brightness Start Highest point End Pass type
(mag) Time Alt. Az. Time Alt. Az. Time Alt. Az.
29 Jul -0.8 00:01:28 10° W 00:01:36 11° W 00:01:36 11° W visible
29 Jul -2.9 21:36:40 10° NW 21:39:56 44° NNE 21:42:59 11° E visible
29 Jul -2.1 23:13:41 10° WNW 23:15:56 26° WSW 23:15:56 26° WSW visible
30 Jul -3.2 22:26:11 10° WNW 22:29:26 47° SW 22:30:18 36° S visible
31 Jul -3.7 21:38:46 10° WNW 21:42:10 78° SSW 21:44:44 16° SE visible
01 Aug -1.7 22:29:00 10° W 22:31:20 17° SW 22:32:11 16° SSW visible
02 Aug -2.2 21:41:12 10° WNW 21:44:09 28° SW 21:46:44 12° SSE visible
04 Aug -0.9 21:45:24 10° WSW 21:45:55 10° SW 21:46:26 10° SW visible
